Location: Shenandoah County Park
(38.9356°N, 78.4524°W)
Time: 13:57:03
(UTC-05:00)

Vanguard 2 Rocket - Pass Details

Date: 03 December 2023
Orbit: 555 x 3309 km, 32.9° (Epoch: 03 March)

Event Time Altitude Azimuth Distance (km) Brightness Sun altitude
Rises 21:11:43 0° 283° (WNW) 7,211 12.1 -49.8°
Reaches altitude 10° 21:17:27 10° 276° (W) 5,990 11.5 -50.9°
Enters shadow 21:32:10 35° 221° (SW) 3,390 9.7 -53.7°
Maximum altitude 21:32:18 35° 220° (SW) 3,379 - -53.7°
Drops below altitude 10° 21:42:16 10° 159° (SSE) 3,996 - -55.5°
Sets 21:45:15 0° 150° (SSE) 4,638 - -56.1°
